(29) Amphitrite
ephemeris date magn radius delta ra dec elong phase
Today20 Oct 202511.22.698 AU3.689 AU13h19m-10°23'4.6°1.7°
Opposition28 May 20269.72.739 AU1.734 AU16h15m-30°32'170.9°3.4°
(29) Amphitrite - 2025-10-20
astro.vanbuitenen.nl


 
-1 year
-1 month
-1 day
Now
+1 day
+1 month
+1 year

The interactive orbit chart above shows the body's path through the solar system and its position at the given date. Green and blue lines are shown perpendicular to the ecliptic plane: Green if the path is above the ecliptic plane, blue if it is below. (Left-click and drag to rotate the view; Right-click and drag to move the view; Use scroll wheel to zoom in our out.)

The orbital elements of Amphitrite are:

            e (Eccentricity)                : 0.0734638
            a (Semimajor axis)              : 2.5539190
            i (Inclination)                 : 6.07775
            Ω (Longitude of ascending node) : 356.25572
            ω (Argument of perihelion)      : 61.88221
            M (Mean anomaly)                : 96.82761
            Epoch                           : 2025 May 05

            L (Longitude of perihelion)     : 58.00348
            B (Latitude of perihelion)      : 5.35822
            P (Orbital period in years)     : 4.08            
        

The light curve chart below shows the estimated development of the minor planet's magnitude.


The all-sky chart below shows the path of the minor planet over the same period as the light curve. The current position is marked yellow.





The following chart shows the path of the minor planet in the next few days. The field of view is optimized for (~10x50) binoculars and finderscopes.




Ephemerides:
Date       Time       RA (2000)    DEC (2000)    delta   radius  elong  phase   PA    magn
2025-10-20 00:00 UT   13 19 39.3   -10 23 30     3.689    2.698    4.6    1.7   268   11.2 
2025-10-20 04:27 UT   13 19 56.8   -10 25 25     3.689    2.698    4.7    1.7   269   11.2 
2025-10-21 00:00 UT   13 21 13.9   -10 33 53     3.688    2.698    5.1    1.9   271   11.2 
2025-10-22 00:00 UT   13 22 48.5   -10 44 16     3.687    2.699    5.7    2.1   273   11.2 
2025-10-23 00:00 UT   13 24 23.1   -10 54 36     3.686    2.699    6.2    2.3   274   11.2 
2025-10-24 00:00 UT   13 25 57.8   -11 04 56     3.685    2.700    6.8    2.5   275   11.2 
2025-10-25 00:00 UT   13 27 32.6   -11 15 13     3.684    2.700    7.3    2.7   276   11.2 
2025-10-26 00:00 UT   13 29 07.4   -11 25 29     3.682    2.701    7.9    2.9   277   11.3 
2025-10-27 00:00 UT   13 30 42.3   -11 35 44     3.680    2.701    8.4    3.1   278   11.3 
2025-10-28 00:00 UT   13 32 17.2   -11 45 57     3.679    2.702    9.0    3.3   279   11.3 
2025-10-29 00:00 UT   13 33 52.1   -11 56 07     3.677    2.702    9.6    3.5   279   11.3 
2025-10-30 00:00 UT   13 35 27.1   -12 06 17     3.674    2.703   10.1    3.7   280   11.3 
2025-10-31 00:00 UT   13 37 02.1   -12 16 24     3.672    2.703   10.7    3.9   280   11.3 
2025-11-01 00:00 UT   13 38 37.2   -12 26 29     3.670    2.703   11.3    4.1   281   11.3 
2025-11-02 00:00 UT   13 40 12.3   -12 36 33     3.667    2.704   11.9    4.3   281   11.3 
2025-11-03 00:00 UT   13 41 47.4   -12 46 34     3.665    2.704   12.4    4.5   282   11.3 
2025-11-04 00:00 UT   13 43 22.6   -12 56 34     3.662    2.705   13.0    4.7   282   11.4 
2025-11-05 00:00 UT   13 44 57.8   -13 06 32     3.659    2.705   13.6    4.9   282   11.4 
2025-11-06 00:00 UT   13 46 33.0   -13 16 27     3.656    2.706   14.2    5.1   282   11.4 
2025-11-07 00:00 UT   13 48 08.3   -13 26 21     3.653    2.706   14.7    5.3   283   11.4 
2025-11-08 00:00 UT   13 49 43.5   -13 36 13     3.650    2.707   15.3    5.5   283   11.4 
2025-11-09 00:00 UT   13 51 18.8   -13 46 02     3.646    2.707   15.9    5.8   283   11.4 


    Terminology:
            
    delta:  distance between minor planet and earth in AU
    radius: distance between minor planet and sun in AU
    magn:   magnitude (brightness) estimate    
    ra:     right ascension in hours (24h = 360deg)
    dec:    declination in degrees
    elong:  elongation in degrees (angle sun-earth-minor planet)    
    phase:  phase angle in degrees (angle sun-minor planet-earth)        
    AU:     Astronomical Unit (mean distance between earth and sun: 149597870.7 km
    

Orbital elements provided by the MPC (Minor Planet Center).
Calculations by a modified version of AAPlus, a C# implementation of the AA+ project by PJ Naughter from the algorithms presented in the book "Astronomical Algorithms" by Jean Meeus.
NGC2000 dso catalog and star labels from VizieR as provided by the Strasbourg astronomical Data Center.
Tycho2 catalog from the ESO archive.